Fort Covington, New York, United States (12937)
Lat: 44.99N, Lon: 74.5W
Wx Zone: NYZ027
Local Info
Past Weather Observations for Saturday, May 23, 2015

NOTE: This archive is for the closest National Weather Service station to Fort Covington. Information may differ from the station used for current weather conditions.

Click here for Long-term Archive

Time Weather Temperature Dewpoint Humidity Pressure Winds Precip Visibility
23:53
Clear
36°F / 2°C 21°F / -6°C 56% 30.24 in
(1024 mb)
SSW 5.8 mph
(SSW 9 kph)
- 10SM
22:53
Clear
36°F / 2°C 21°F / -6°C 56% 30.24 in
(1024 mb)
WNW 5.8 mph
(WNW 9 kph)
- 10SM
21:53
Clear
36°F / 2°C 21°F / -6°C 56% 30.21 in
(1023 mb)
SSW 4.6 mph
(SSW 7 kph)
- 10SM
20:53
Clear
41°F / 5°C 19°F / -7°C 42% 30.21 in
(1023 mb)
NW 6.9 mph
(NW 11 kph)
- 10SM
19:53
Clear
43°F / 6°C 19°F / -7°C 39% 30.18 in
(1022 mb)
NNW 10.4 mph
(NNW 17 kph)
- 10SM
18:53
Mostly Cloudy
46°F / 8°C 19°F / -7°C 34% 30.12 in
(1020 mb)
NNW 11.5 mph
(NNW 19 kph)
- 10SM
17:53
Overcast
48°F / 9°C 21°F / -6°C 34% 30.09 in
(1019 mb)
NW 13.8 mph
(NW 22 kph)
- 10SM
16:53
Mostly Cloudy
48°F / 9°C 21°F / -6°C 34% 30.06 in
(1018 mb)
NW 13.8 mph
(NW 22 kph)
- 10SM
15:53
Mostly Cloudy
52°F / 11°C 25°F / -4°C 35% 30.04 in
(1017 mb)
NW 12.7 mph
(NW 20 kph)
- 10SM
14:53
Clear
54°F / 12°C 25°F / -4°C 33% 30.04 in
(1017 mb)
NW 20.7 mph
(NW 33 kph)
- 10SM
13:53
Clear
55°F / 13°C 27°F / -3°C 33% 30.01 in
(1016 mb)
NW 20.7 mph
(NW 33 kph)
- 10SM
12:53
Partly Cloudy
55°F / 13°C 30°F / -1°C 38% 30.01 in
(1016 mb)
WNW 17.3 mph
(WNW 28 kph)
- 10SM
11:53
Partly Cloudy
55°F / 13°C 30°F / -1°C 38% 29.98 in
(1015 mb)
W 13.8 mph
(W 22 kph)
- 10SM
10:53
Mostly Cloudy
55°F / 13°C 30°F / -1°C 38% 29.98 in
(1015 mb)
NW 11.5 mph
(NW 19 kph)
- 10SM
09:53
Partly Cloudy
54°F / 12°C 34°F / 1°C 47% 29.98 in
(1015 mb)
W 15 mph
(W 24 kph)
- 10SM
08:53
Partly Cloudy
50°F / 10°C 36°F / 2°C 58% 29.95 in
(1014 mb)
WNW 10.4 mph
(WNW 17 kph)
- 10SM
07:53
Mostly Cloudy
48°F / 9°C 36°F / 2°C 62% 29.95 in
(1014 mb)
NW 8.1 mph
(NW 13 kph)
- 10SM
06:53
Clear
48°F / 9°C 36°F / 2°C 62% 29.92 in
(1013 mb)
NNW 11.5 mph
(NNW 19 kph)
- 10SM
05:53
Partly Cloudy
48°F / 9°C 37°F / 3°C 66% 29.89 in
(1012 mb)
NW 9.2 mph
(NW 15 kph)
- 10SM
04:53
Overcast
48°F / 9°C 37°F / 3°C 66% 29.86 in
(1011 mb)
NW 6.9 mph
(NW 11 kph)
0.00 in
(0.00 mm)
10SM
04:31
Overcast
Light Rain
48°F / 9°C 37°F / 3°C 66% 29.86 in
(1011 mb)
NW 10.4 mph
(NW 17 kph)
0.00 in
(0.00 mm)
10SM
03:53
Overcast
50°F / 10°C 41°F / 5°C 71% 29.83 in
(1010 mb)
NNW 12.7 mph
(NNW 20 kph)
- 10SM
03:28
Overcast
52°F / 11°C 43°F / 6°C 72% 29.8 in
(1009 mb)
NNW 11.5 mph
(NNW 19 kph)
- 10SM
02:53
Overcast
52°F / 11°C 37°F / 3°C 58% 29.8 in
(1009 mb)
SSW 8.1 mph
(SSW 13 kph)
- 10SM
01:53
Overcast
52°F / 11°C 37°F / 3°C 58% 29.77 in
(1008 mb)
SW 11.5 mph
(SW 19 kph)
- 10SM
00:53
Overcast
54°F / 12°C 37°F / 3°C 54% 29.77 in
(1008 mb)
SW 9.2 mph
(SW 15 kph)
- 10SM
Time Weather Temperature Dewpoint Humidity Pressure Winds Precip Visibility


Weather for websites

WeatherForYou.com, LLC is not responsible for any damages or problems caused by this service. Current weather conditions are obtained from the closest station including government and personal stations which may have varying degrees of accuracy. Weather forecasts are derived from the NOAA NDFD. Like all things, this site belongs to Jesus Christ... He just trusts us to maintain it. If you have any questions or comments email webmaster@weatherforyou.com

Copyright © 2015, WeatherForYou.com LLC. All rights reserved.